User: anonymous   Login
Location: Unspecified
(0.0000°N, 0.0000°E)
Time: 00:01:43
(UTC+00:00)
Language:

STARLINK-5288 - Orbit

View from above orbital plane
View from above orbital plane
View from above satellite
View from above satellite

Ground track
Ground track

The orbit is defined by the following mean orbital elements,

1 55307U          26145.36567272 +.00000000 +00000-0 +54286-4 0 00008
2 55307  69.9983 171.2875 0003880 265.1615  94.9101 14.98333213    03
Epoch (UTC): 25 May 2026 08:46:34
Eccentricity: 0.0003880
inclination: 69.9983°
perigee height: 569 km
apogee height: 575 km
right ascension of ascending node: 171.2875°
argument of perigee: 265.1615°
revolutions per day: 14.98333213
mean anomaly at epoch: 94.9101°

The dashed part of the orbit path shows where the satellite is in the earth's shadow,  

DLR